Home   Weather   Quispamsis   Past weeks

Flag for Canada Past Weather in Quispamsis, New Brunswick, Canada — Yesterday and Last 2 Weeks

Now
25 °F

Light snow. Mostly cloudy.


Feels Like: 11 °F
Forecast: 16 / 44 °F
Wind: 17 mph from East

Location: Saint John

Current Time: Jan 23, 2018 at 10:11:19 am

Latest Report: Jan 23, 2018 at 9:00 am


Visibility: 1 mi

Pressure: 30.20 "Hg

Humidity: 86%

Dew Point: 21 °F

Location of QuispamsisLocation

Past Weather in Quispamsis — Graph

°F

Quispamsis Temperature Yesterday

Maximum temperature yesterday: 21 °F (at 12:00 am)
Minimum temperature yesterday: 10 °F (at 8:00 am)
Average temperature yesterday: 15 °F

High & Low Weather Summary for the Past Weeks

 TemperatureHumidityPressure
High59 °F (Jan 13, 10:00 am)100% (Jan 8, 10:00 pm)30.84 "Hg (Jan 8, 10:00 pm)
Low3 °F (Jan 15, 4:00 am)38% (Jan 22, 2:00 pm)29.43 "Hg (Jan 20, 2:00 pm)
Average26 °F85%30.11 "Hg
* Reported Jan 8 9:00 am — Jan 23 9:00 am, Quispamsis. Weather by CustomWeather, © 2018

Note: Actual official high and low records may vary slightly from our data, if they occured in-between our weather recording intervals... More about our weather records

Advertising

Quispamsis Weather History for the Previous 24 Hours

Scroll right to see more
 ConditionsComfort  
Time TempWeatherWind HumidityBarometerVisibility
9:00 am
Tue, Jan 23
25 °FLight snow. Mostly cloudy.17 mph86%30.20 "Hg1 mi
8:00 am23 °FLight snow. Mostly cloudy.17 mph86%30.23 "Hg1 mi
7:18 am21 °FLight snow. Ice fog.16 mph93%30.26 "Hg1 mi
7:00 am21 °FLight snow. Ice fog.15 mph93%30.27 "Hg1 mi
6:00 am21 °FLight snow. Overcast.14 mph86%30.30 "Hg1 mi
5:00 am21 °FLight snow. Ice fog.10 mph86%30.34 "Hg1 mi
4:15 am21 °FLight snow. Ice fog.8 mph86%30.35 "Hg2 mi
4:00 am21 °FLight snow. Overcast.6 mph86%30.35 "Hg5 mi
3:00 am18 °FLight snow. Ice fog.6 mph79%30.36 "Hg2 mi
2:53 am18 °FLight snow. Ice fog.6 mph79%30.36 "Hg2 mi
2:00 am18 °FLight snow. Overcast.8 mph62%30.38 "Hg10 mi
1:09 am18 °FLight snow. Mostly cloudy.5 mph68%30.39 "Hg15 mi
12:00 am18 °FMostly cloudy.5 mph58%30.40 "Hg15 mi
11:00 pm
Mon, Jan 22
16 °FOvercast.5 mph73%30.40 "Hg15 mi
10:00 pm16 °FOvercast.3 mph67%30.42 "Hg15 mi
9:00 pm12 °FOvercast.No wind79%30.45 "Hg15 mi
8:00 pm10 °FPassing clouds.No wind79%30.44 "Hg15 mi
7:00 pm10 °FPassing clouds.2 mph85%30.45 "Hg15 mi
6:00 pm16 °FPassing clouds.2 mph62%30.43 "Hg15 mi
5:00 pm19 °FPartly sunny.5 mph49%30.41 "Hg15 mi
4:00 pm21 °FPartly sunny.9 mph38%30.41 "Hg15 mi
3:00 pm21 °FBroken clouds.12 mph38%30.38 "Hg15 mi
2:00 pm21 °FBroken clouds.13 mph38%30.38 "Hg15 mi
1:00 pm19 °FBroken clouds.10 mph45%30.39 "Hg15 mi
12:00 pm18 °FBroken clouds.10 mph45%30.40 "Hg15 mi
11:00 am16 °FBroken clouds.20 mph48%30.43 "Hg15 mi
10:00 am16 °FBroken clouds.13 mph48%30.43 "Hg15 mi
Weather by CustomWeather, © 2018

See weather overview